sat.trackr.live / text

‹ back to catalog

STARLINK-5054

NORAD 53906 · 2022-119W

PAYLOAD ACTIVE UNKNOWN

§ Identity

Operator
Country
US
Launch date
2022-09-24
Launch site
AFETR
Launch vehicle
Mass (kg)
RCS (m²)

Purposes: comms

External: N2YO · Heavens-Above · Gunter

§ Orbital elements

Epoch: 2026-09-20T00:03:58.324032Z

Period
95.44 min
Inclination
53.1582°
Eccentricity
0.0001004
Mean motion
15.08835620 rev/d
Perigee alt
539.1 km
Apogee alt
540.5 km
Semi-major
6,917.9 km
B*
4.1145e-5
RAAN
160.8718°
Arg perigee
94.4826°
Mean anomaly
265.6280°
Rev number
22,116

§ Raw data

STARLINK-50541 53906U 22119W   26263.00275838  .00000367  00000+0  41145-4 0  99942 53906  53.1582 160.8718 0001004  94.4826 265.6280 15.08835620221167

JSON: /api/v1/satellites/53906 · /tle

For live sub-satellite position, see the globe view (requires WebGL).

§ Visibility from observer

Set your observer location to see the next 7 days of passes ≥ 10°. The values pass through the URL so the page stays shareable.

No JS? Fill the form by hand. The geolocation button needs JavaScript.